M I D A S
Marine Information and Data Acquisition System
Tripno 581 of the Zeeleeuw from 2003-09-02 06:28:39 to 2003-09-02 14:26:07
Back to CruiseResearch ActivitiesStationsMapUnderway DataData graphs

EquipmentUnitsComments
TimeDGPSUTC
LatitudeDGPSDM.mWGS84
LongitudeDGPSDM.mWGS84
SpeedMeteo Stationm/sRelative wind speed
DirectionMeteo StationdegRelative wind direction
TemperatureMeteo Stationdeg CelciusAir temperature
PressureMeteo StationPaAtmospheric pressure
HumidityMeteo Station%Relative humidity
Missing or incorrect values are displayed as -999
Metereological data collected by the RV Zeeleeuw from 2003-09-02 06:28:39 to 2003-09-02 14:26:07
                                                                                    Next 1000 lines
Time Latitude Longitude Speed Direction Temperature Pressure Humidity
2003-09-02 06:28:47 51°13.83 2°55.64 1.4 31 14.6 102540 71
2003-09-02 06:28:51 51°13.83 2°55.63 1.4 23 14.6 102540 72
2003-09-02 06:28:57 51°13.84 2°55.62 1.2 65 14.6 102540 72
2003-09-02 06:29:01 51°13.85 2°55.62 1.1 50 14.6 102540 72
2003-09-02 06:29:07 51°13.86 2°55.61 1.2 103 14.6 102540 72
2003-09-02 06:29:11 51°13.87 2°55.6 1.2 96 14.6 102540 71
2003-09-02 06:29:17 51°13.88 2°55.6 0.8 80 14.6 102540 71
2003-09-02 06:29:21 51°13.88 2°55.59 0.9 62 14.6 102540 72
2003-09-02 06:29:27 51°13.89 2°55.58 1.2 37 14.6 102540 72
2003-09-02 06:29:33 51°13.9 2°55.57 1.6 26 14.6 102540 72
2003-09-02 06:29:37 51°13.91 2°55.57 1.1 43 14.6 102540 72
2003-09-02 06:29:41 51°13.92 2°55.56 1.1 39 14.5 102540 72
2003-09-02 06:29:47 51°13.93 2°55.56 1.9 32 14.5 102540 72
2003-09-02 06:29:51 51°13.94 2°55.55 2.3 40 14.5 102540 72
2003-09-02 06:29:57 51°13.95 2°55.54 2.1 51 14.5 102540 72
2003-09-02 06:30:01 51°13.96 2°55.54 2 60 14.5 102540 72
2003-09-02 06:30:07 51°13.97 2°55.53 2.5 75 14.5 102540 72
2003-09-02 06:30:11 51°13.98 2°55.52 2.5 70 14.5 102540 72
2003-09-02 06:30:17 51°13.99 2°55.51 3 75 14.5 102540 72
2003-09-02 06:30:21 51°14 2°55.51 3.3 83 14.5 102540 72
2003-09-02 06:30:27 51°14.01 2°55.5 3.3 86 14.5 102540 72
2003-09-02 06:30:31 51°14.02 2°55.49 3.1 74 14.5 102530 72
2003-09-02 06:30:37 51°14.03 2°55.49 2.8 70 14.5 102530 72
2003-09-02 06:30:41 51°14.04 2°55.48 3.3 52 14.5 102540 72
2003-09-02 06:30:47 51°14.05 2°55.47 2.8 55 14.5 102540 72
2003-09-02 06:30:51 51°14.06 2°55.47 2.5 56 14.5 102540 72
2003-09-02 06:30:57 51°14.07 2°55.46 2.6 35 14.5 102540 72
2003-09-02 06:31:01 51°14.08 2°55.45 3.6 38 14.5 102540 72
2003-09-02 06:31:07 51°14.09 2°55.44 3.6 24 14.5 102540 72
2003-09-02 06:31:11 51°14.1 2°55.44 3.5 24 14.5 102540 73
2003-09-02 06:31:17 51°14.11 2°55.43 3.6 33 14.5 102540 73
2003-09-02 06:31:21 51°14.12 2°55.42 3.3 44 14.5 102540 73
2003-09-02 06:31:27 51°14.13 2°55.41 3.6 37 14.5 102540 73
2003-09-02 06:31:31 51°14.14 2°55.4 3.7 31 14.5 102540 73
2003-09-02 06:31:37 51°14.15 2°55.39 3.9 24 14.5 102540 73
2003-09-02 06:31:41 51°14.16 2°55.39 4.2 35 14.5 102540 73
2003-09-02 06:31:47 51°14.17 2°55.38 4.4 35 14.5 102540 73
2003-09-02 06:31:51 51°14.18 2°55.37 4.4 47 14.5 102540 73
2003-09-02 06:31:57 51°14.19 2°55.36 3.8 32 14.5 102540 73
2003-09-02 06:32:01 51°14.2 2°55.35 4.2 28 14.5 102540 73
2003-09-02 06:32:07 51°14.21 2°55.33 4.7 20 14.5 102540 73
2003-09-02 06:32:11 51°14.22 2°55.32 5.1 30 14.5 102540 73
2003-09-02 06:32:17 51°14.23 2°55.31 5.3 30 14.5 102540 73
2003-09-02 06:32:21 51°14.23 2°55.29 5.8 31 14.5 102540 73
2003-09-02 06:32:27 51°14.25 2°55.28 5.3 30 14.5 102540 73
2003-09-02 06:32:31 51°14.25 2°55.27 5.1 34 14.5 102540 73
2003-09-02 06:32:37 51°14.26 2°55.25 5.1 39 14.5 102540 73
2003-09-02 06:32:41 51°14.27 2°55.23 5.1 35 14.5 102540 73
2003-09-02 06:32:47 51°14.28 2°55.21 5.1 44 14.5 102540 73
2003-09-02 06:32:51 51°14.29 2°55.2 6 42 14.5 102530 74
2003-09-02 06:32:57 51°14.3 2°55.18 5 41 14.5 102530 74
2003-09-02 06:33:01 51°14.31 2°55.16 5.1 40 14.6 102530 74
2003-09-02 06:33:07 51°14.32 2°55.14 4.7 32 14.6 102530 74
2003-09-02 06:33:11 51°14.33 2°55.13 5 32 14.6 102540 74
2003-09-02 06:33:17 51°14.34 2°55.1 3.7 42 14.6 102540 74
2003-09-02 06:33:21 51°14.35 2°55.09 5.4 21 14.6 102540 73
2003-09-02 06:33:27 51°14.36 2°55.07 6.8 34 14.6 102540 73
2003-09-02 06:33:31 51°14.36 2°55.05 5.9 41 14.6 102540 73
2003-09-02 06:33:37 51°14.38 2°55.03 6.5 53 14.6 102540 73
2003-09-02 06:33:41 51°14.39 2°55.02 9.1 56 14.6 102530 73
2003-09-02 06:33:47 51°14.4 2°55 10 47 14.6 102530 73
2003-09-02 06:33:51 51°14.41 2°54.98 9 51 14.6 102540 73
2003-09-02 06:33:57 51°14.42 2°54.97 8.7 44 14.6 102540 73
2003-09-02 06:34:01 51°14.43 2°54.95 10.7 35 14.6 102540 73
2003-09-02 06:34:07 51°14.45 2°54.94 10.9 30 14.6 102540 73
2003-09-02 06:34:11 51°14.46 2°54.93 10.7 28 14.6 102520 71
2003-09-02 06:34:17 51°14.48 2°54.91 11.2 22 14.6 102520 71
2003-09-02 06:34:21 51°14.49 2°54.91 11.9 23 14.6 102520 69
2003-09-02 06:34:27 51°14.51 2°54.89 13.5 20 14.6 102520 69
2003-09-02 06:34:31 51°14.52 2°54.88 11.6 22 14.7 102520 69
2003-09-02 06:34:37 51°14.54 2°54.87 10.6 25 14.7 102520 69
2003-09-02 06:34:41 51°14.55 2°54.86 10.9 23 14.8 102530 66
2003-09-02 06:34:47 51°14.57 2°54.85 11.6 23 14.8 102530 66
2003-09-02 06:34:51 51°14.58 2°54.84 12.9 23 14.9 102500 65
2003-09-02 06:34:57 51°14.6 2°54.83 12 24 14.9 102500 65
2003-09-02 06:35:01 51°14.61 2°54.83 11.9 18 15 102520 65
2003-09-02 06:35:07 51°14.63 2°54.82 12.8 21 15 102520 65
2003-09-02 06:35:11 51°14.65 2°54.81 12.4 19 15.1 102520 63
2003-09-02 06:35:17 51°14.67 2°54.81 13.2 20 15.1 102520 63
2003-09-02 06:35:21 51°14.68 2°54.8 12.5 21 15.2 102510 63
2003-09-02 06:35:27 51°14.7 2°54.79 12.4 18 15.2 102510 63
2003-09-02 06:35:31 51°14.71 2°54.79 12.4 18 15.2 102510 62
2003-09-02 06:35:37 51°14.73 2°54.78 12.4 21 15.2 102510 62
2003-09-02 06:35:41 51°14.74 2°54.78 13.3 19 15.3 102520 63
2003-09-02 06:35:47 51°14.76 2°54.77 13 19 15.3 102520 63
2003-09-02 06:35:51 51°14.78 2°54.76 12.7 21 15.4 102510 61
2003-09-02 06:35:57 51°14.8 2°54.75 13.4 23 15.4 102510 61
2003-09-02 06:36:01 51°14.81 2°54.75 13 27 15.4 102510 60
2003-09-02 06:36:07 51°14.83 2°54.74 12.7 19 15.4 102510 60
2003-09-02 06:36:11 51°14.85 2°54.73 12.9 23 15.5 102510 60
2003-09-02 06:36:17 51°14.87 2°54.73 13.2 21 15.5 102510 60
2003-09-02 06:36:21 51°14.88 2°54.72 12.7 18 15.6 102510 61
2003-09-02 06:36:27 51°14.9 2°54.72 13.7 21 15.6 102510 61
2003-09-02 06:36:31 51°14.92 2°54.71 12.5 20 15.6 102480 62
2003-09-02 06:36:37 51°14.94 2°54.71 12.1 21 15.6 102480 62
2003-09-02 06:36:41 51°14.95 2°54.7 12.7 17 15.7 102510 62
2003-09-02 06:36:47 51°14.97 2°54.7 13.1 15 15.7 102510 62
2003-09-02 06:36:51 51°14.99 2°54.7 13.8 9 15.7 102500 61
2003-09-02 06:36:57 51°15.01 2°54.7 13.8 7 15.7 102500 61
2003-09-02 06:37:01 51°15.02 2°54.7 15.4 1 15.8 102510 61
2003-09-02 06:37:07 51°15.05 2°54.71 13.4 1 15.8 102510 61
2003-09-02 06:37:11 51°15.06 2°54.71 13 359 15.8 102510 60
2003-09-02 06:37:17 51°15.08 2°54.72 13.9 3 15.8 102510 60
2003-09-02 06:37:21 51°15.1 2°54.73 13.4 5 15.8 102510 60
2003-09-02 06:37:27 51°15.12 2°54.73 13.2 2 15.8 102510 60
2003-09-02 06:37:31 51°15.13 2°54.74 12.2   15.9 102510 59
2003-09-02 06:37:37 51°15.15 2°54.75 12.6 360 15.9 102510 59
2003-09-02 06:37:41 51°15.17 2°54.76 12.7 359 15.9 102510 58
2003-09-02 06:37:47 51°15.19 2°54.77 12.7 358 15.9 102510 58
2003-09-02 06:37:51 51°15.2 2°54.78 12.7 358 15.9 102510 58
2003-09-02 06:37:57 51°15.22 2°54.8 13.1 355 15.9 102510 58
2003-09-02 06:38:01 51°15.23 2°54.81 12.4 354 15.9 102520 59
2003-09-02 06:38:07 51°15.25 2°54.83 13.2 356 15.9 102520 59
2003-09-02 06:38:11 51°15.26 2°54.84 11.2 354 15.9 102520 58
2003-09-02 06:38:17 51°15.28 2°54.86 11.3 351 15.9 102520 58
2003-09-02 06:38:21 51°15.29 2°54.88 13.2 351 15.9 102510 57
2003-09-02 06:38:27 51°15.31 2°54.9 13.3 355 15.9 102510 57
2003-09-02 06:38:31 51°15.32 2°54.91 12.1 357 15.9 102500 57
2003-09-02 06:38:37 51°15.34 2°54.93 13 356 15.9 102500 57
2003-09-02 06:38:41 51°15.35 2°54.95 12.9 355 16 102520 60
2003-09-02 06:38:47 51°15.37 2°54.97 13.3 356 16 102520 60
2003-09-02 06:38:51 51°15.38 2°54.98 13.2 357 16 102510 58
2003-09-02 06:38:57 51°15.4 2°55 12.9 351 16 102510 58
2003-09-02 06:39:01 51°15.41 2°55.01 12.7 356 16 102520 58
2003-09-02 06:39:07 51°15.42 2°55.03 13.2 351 16 102520 58
2003-09-02 06:39:11 51°15.44 2°55.05 12.4 355 16 102510 58
2003-09-02 06:39:17 51°15.45 2°55.07 11.9 348 16 102510 58
2003-09-02 06:39:21 51°15.46 2°55.09 13.5 348 16 102510 58
2003-09-02 06:39:27 51°15.48 2°55.11 14.2 346 16 102510 58
2003-09-02 06:39:31 51°15.49 2°55.13 14.4 345 16.1 102510 58
2003-09-02 06:39:37 51°15.5 2°55.15 14 344 16.1 102510 58
2003-09-02 06:39:41 51°15.51 2°55.17 12.9 343 16.1 102510 58
2003-09-02 06:39:47 51°15.53 2°55.2 12.9 342 16.1 102510 58
2003-09-02 06:39:51 51°15.54 2°55.22 13.5 338 16.1 102500 58
2003-09-02 06:39:57 51°15.55 2°55.24 13.4 343 16.1 102500 58
2003-09-02 06:40:01 51°15.56 2°55.26 12.6 347 16.1 102500 58
2003-09-02 06:40:07 51°15.58 2°55.29 12.6 344 16.1 102500 58
2003-09-02 06:40:11 51°15.59 2°55.3 13.1 336 16.1 102510 58
2003-09-02 06:40:17 51°15.6 2°55.33 12.8 348 16.1 102510 58
2003-09-02 06:40:21 51°15.61 2°55.35 12.7 345 16.2 102500 58
2003-09-02 06:40:27 51°15.63 2°55.37 13.9 342 16.2 102500 58
2003-09-02 06:40:31 51°15.64 2°55.39 12.6 340 16.2 102500 59
2003-09-02 06:40:37 51°15.65 2°55.42 12.7 342 16.2 102500 59
2003-09-02 06:40:41 51°15.66 2°55.43 12.9 340 16.2 102510 59
2003-09-02 06:40:47 51°15.68 2°55.46 12.1 340 16.2 102510 59
2003-09-02 06:40:51 51°15.69 2°55.48 12.2 342 16.2 102500 59
2003-09-02 06:40:57 51°15.7 2°55.5 11.5 341 16.2 102500 59
2003-09-02 06:41:01 51°15.71 2°55.52 12.7 340 16.2 102500 58
2003-09-02 06:41:07 51°15.73 2°55.55 13.8 340 16.2 102500 58
2003-09-02 06:41:11 51°15.74 2°55.56 13.6 340 16.3 102500 58
2003-09-02 06:41:17 51°15.75 2°55.59 13.4 335 16.3 102500 58
2003-09-02 06:41:21 51°15.76 2°55.6 14 340 16.2 102510 57
2003-09-02 06:41:27 51°15.78 2°55.63 12.4 341 16.2 102510 57
2003-09-02 06:41:31 51°15.79 2°55.65 12.2 339 16.3 102500 57
2003-09-02 06:41:37 51°15.8 2°55.67 11.8 341 16.3 102500 57
2003-09-02 06:41:41 51°15.81 2°55.69 12 340 16.3 102500 57
2003-09-02 06:41:47 51°15.82 2°55.72 11.9 342 16.3 102500 57
2003-09-02 06:41:51 51°15.83 2°55.74 12.5 338 16.3 102490 57
2003-09-02 06:41:57 51°15.85 2°55.76 13.3 338 16.3 102490 57
2003-09-02 06:42:01 51°15.85 2°55.78 13.5 340 16.3 102510 58
2003-09-02 06:42:07 51°15.87 2°55.81 13.5 340 16.3 102510 58
2003-09-02 06:42:11 51°15.88 2°55.83 13.3 341 16.3 102500 57
2003-09-02 06:42:17 51°15.89 2°55.86 13 343 16.3 102500 57
2003-09-02 06:42:21 51°15.9 2°55.88 13.4 340 16.3 102500 56
2003-09-02 06:42:27 51°15.91 2°55.9 13.7 337 16.3 102500 56
2003-09-02 06:42:31 51°15.92 2°55.92 12.4 340 16.3 102490 57
2003-09-02 06:42:37 51°15.93 2°55.95 13.4 338 16.3 102490 57
2003-09-02 06:42:41 51°15.94 2°55.97 13.6 341 16.4 102510 58
2003-09-02 06:42:47 51°15.95 2°56 12.5 341 16.4 102510 58
2003-09-02 06:42:51 51°15.96 2°56.02 12.6 341 16.3 102500 55
2003-09-02 06:42:57 51°15.97 2°56.05 13.2 342 16.3 102500 55
2003-09-02 06:43:01 51°15.98 2°56.07 13.2 344 16.4 102500 55
2003-09-02 06:43:07 51°15.99 2°56.1 12.6 336 16.4 102500 55
2003-09-02 06:43:11 51°16 2°56.12 13.1 333 16.3 102490 55
2003-09-02 06:43:17 51°16.02 2°56.15 13.8 336 16.3 102490 55
2003-09-02 06:43:21 51°16.02 2°56.17 12.7 336 16.4 102490 56
2003-09-02 06:43:27 51°16.04 2°56.19 13.4 337 16.4 102490 56
2003-09-02 06:43:31 51°16.05 2°56.21 12.7 342 16.4 102500 55
2003-09-02 06:43:37 51°16.06 2°56.24 14.3 337 16.4 102500 55
2003-09-02 06:43:41 51°16.07 2°56.26 14.6 336 16.4 102500 55
2003-09-02 06:43:47 51°16.08 2°56.29 14.1 343 16.4 102500 55
2003-09-02 06:43:51 51°16.09 2°56.31 13.6 341 16.4 102510 56
2003-09-02 06:43:57 51°16.1 2°56.34 14.2 349 16.4 102510 56
2003-09-02 06:44:01 51°16.11 2°56.36 14.8 346 16.4 102510 57
2003-09-02 06:44:07 51°16.12 2°56.39 14.1 346 16.4 102510 57
2003-09-02 06:44:11 51°16.13 2°56.41 13.7 341 16.4 102490 58
2003-09-02 06:44:17 51°16.14 2°56.44 12.7 344 16.4 102490 58
2003-09-02 06:44:21 51°16.15 2°56.46 13.6 342 16.4 102490 58
2003-09-02 06:44:27 51°16.17 2°56.49 12.5 339 16.4 102490 58
2003-09-02 06:44:31 51°16.17 2°56.51 12.9 339 16.4 102500 57
2003-09-02 06:44:37 51°16.19 2°56.54 13.7 337 16.4 102500 57
2003-09-02 06:44:41 51°16.19 2°56.56 13 342 16.4 102490 56
2003-09-02 06:44:47 51°16.21 2°56.59 12.4 346 16.4 102490 56
2003-09-02 06:44:51 51°16.22 2°56.61 12.9 341 16.4 102500 57
2003-09-02 06:44:57 51°16.23 2°56.64 15.5 347 16.4 102500 57
2003-09-02 06:45:01 51°16.24 2°56.66 14.9 348 16.4 102500 58
2003-09-02 06:45:07 51°16.25 2°56.69 14 341 16.4 102500 58
2003-09-02 06:45:11 51°16.26 2°56.71 14.9 346 16.4 102510 59
2003-09-02 06:45:17 51°16.27 2°56.74 15 349 16.4 102510 59
2003-09-02 06:45:21 51°16.28 2°56.76 13.7 347 16.4 102510 58
2003-09-02 06:45:27 51°16.29 2°56.79 13.7 347 16.4 102510 58
2003-09-02 06:45:31 51°16.3 2°56.81 13.8 346 16.4 102490 59
2003-09-02 06:45:37 51°16.31 2°56.84 14.7 350 16.4 102490 59
2003-09-02 06:45:41 51°16.32 2°56.86 14.7 350 16.4 102500 60
2003-09-02 06:45:47 51°16.33 2°56.89 15.1 343 16.4 102500 60
2003-09-02 06:45:51 51°16.34 2°56.91 15 343 16.4 102500 60
2003-09-02 06:45:57 51°16.35 2°56.94 14.6 340 16.4 102500 60
2003-09-02 06:46:01 51°16.36 2°56.96 13.9 341 16.4 102500 58
2003-09-02 06:46:07 51°16.37 2°56.99 13.5 348 16.4 102500 58
2003-09-02 06:46:11 51°16.38 2°57.01 13.5 347 16.4 102500 58
2003-09-02 06:46:17 51°16.4 2°57.04 14 346 16.4 102500 58
2003-09-02 06:46:21 51°16.4 2°57.06 14 346 16.4 102500 58
2003-09-02 06:46:27 51°16.42 2°57.09 13.3 346 16.4 102500 58
2003-09-02 06:46:31 51°16.43 2°57.11 13.7 347 16.4 102490 59
2003-09-02 06:46:37 51°16.44 2°57.14 14 342 16.4 102490 59
2003-09-02 06:46:41 51°16.45 2°57.16 13.7 346 16.4 102510 59
2003-09-02 06:46:47 51°16.46 2°57.19 13.1 342 16.4 102510 59
2003-09-02 06:46:51 51°16.47 2°57.21 13.6 345 16.4 102510 59
2003-09-02 06:46:57 51°16.48 2°57.24 14.4 344 16.4 102510 59
2003-09-02 06:47:01 51°16.49 2°57.26 14.7 346 16.4 102500 60
2003-09-02 06:47:07 51°16.5 2°57.29 13.5 348 16.4 102500 60
2003-09-02 06:47:11 51°16.51 2°57.31 13.6 347 16.4 102500 59
2003-09-02 06:47:17 51°16.52 2°57.34 13 345 16.4 102500 59
2003-09-02 06:47:21 51°16.53 2°57.36 14 345 16.4 102500 60
2003-09-02 06:47:27 51°16.54 2°57.39 13.1 345 16.4 102500 60
2003-09-02 06:47:31 51°16.55 2°57.41 13.1 345 16.4 102510 59
2003-09-02 06:47:37 51°16.56 2°57.44 12.7 346 16.4 102510 59
2003-09-02 06:47:41 51°16.57 2°57.46 14.1 341 16.4 102500 58
2003-09-02 06:47:47 51°16.58 2°57.49 13.8 342 16.4 102500 58
2003-09-02 06:47:51 51°16.59 2°57.51 13.4 345 16.4 102500 57
2003-09-02 06:47:57 51°16.6 2°57.54 14.8 339 16.4 102500 57
2003-09-02 06:48:01 51°16.61 2°57.56 15.5 336 16.4 102510 59
2003-09-02 06:48:07 51°16.62 2°57.6 14.5 336 16.4 102510 59
2003-09-02 06:48:11 51°16.63 2°57.62 13.7 336 16.4 102510 60
2003-09-02 06:48:17 51°16.64 2°57.65 13.2 334 16.4 102510 60
2003-09-02 06:48:21 51°16.65 2°57.67 13.5 338 16.4 102510 60
2003-09-02 06:48:27 51°16.66 2°57.7 13.4 338 16.4 102510 60
2003-09-02 06:48:31 51°16.67 2°57.72 13 341 16.4 102510 57
2003-09-02 06:48:37 51°16.68 2°57.75 13.1 338 16.4 102510 57
2003-09-02 06:48:41 51°16.69 2°57.77 15.2 337 16.4 102500 58
2003-09-02 06:48:47 51°16.7 2°57.8 14.3 336 16.4 102500 58
2003-09-02 06:48:51 51°16.71 2°57.82 14.2 336 16.4 102500 59
2003-09-02 06:48:57 51°16.72 2°57.85 14.2 337 16.4 102500 59
2003-09-02 06:49:01 51°16.73 2°57.87 14.1 338 16.4 102500 59
2003-09-02 06:49:07 51°16.75 2°57.91 13.8 339 16.4 102500 59
2003-09-02 06:49:11 51°16.75 2°57.93 13.1 339 16.4 102500 58
2003-09-02 06:49:17 51°16.77 2°57.96 15.2 344 16.4 102500 58
2003-09-02 06:49:21 51°16.77 2°57.98 15.3 343 16.4 102500 58
2003-09-02 06:49:27 51°16.79 2°58.01 13.5 341 16.4 102500 58
2003-09-02 06:49:31 51°16.79 2°58.03 15 342 16.4 102500 60
2003-09-02 06:49:37 51°16.81 2°58.06 13 336 16.4 102500 60
2003-09-02 06:49:41 51°16.81 2°58.08 13.7 338 16.4 102510 60
2003-09-02 06:49:47 51°16.83 2°58.11 12.8 342 16.4 102510 60
2003-09-02 06:49:51 51°16.83 2°58.13 13.6 343 16.4 102500 58
2003-09-02 06:49:57 51°16.85 2°58.16 14.5 342 16.4 102500 58
2003-09-02 06:50:01 51°16.85 2°58.18 14.1 340 16.4 102500 59
2003-09-02 06:50:07 51°16.87 2°58.21 14.9 344 16.4 102500 59
2003-09-02 06:50:11 51°16.87 2°58.23 14.6 349 16.4 102510 60
2003-09-02 06:50:17 51°16.89 2°58.26 12.5 341 16.4 102510 60
2003-09-02 06:50:21 51°16.89 2°58.28 13.6 344 16.4 102510 58
2003-09-02 06:50:27 51°16.9 2°58.31 13.8 346 16.4 102510 58
2003-09-02 06:50:31 51°16.91 2°58.33 12.3 344 16.4 102510 58
2003-09-02 06:50:37 51°16.92 2°58.37 14.3 339 16.4 102510 58
2003-09-02 06:50:41 51°16.93 2°58.39 12.7 340 16.4 102510 57
2003-09-02 06:50:47 51°16.94 2°58.42 14.3 333 16.4 102510 57
2003-09-02 06:50:51 51°16.95 2°58.44 15.8 337 16.3 102500 57
2003-09-02 06:50:57 51°16.96 2°58.47 13.8 333 16.3 102500 57
2003-09-02 06:51:01 51°16.97 2°58.49 14.8 332 16.4 102510 58
2003-09-02 06:51:07 51°16.98 2°58.52 13.7 332 16.4 102510 58
2003-09-02 06:51:11 51°16.99 2°58.54 14.5 336 16.4 102520 58
2003-09-02 06:51:17 51°17 2°58.57 12.9 334 16.4 102520 58
2003-09-02 06:51:21 51°17.01 2°58.59 12.8 335 16.4 102500 57
2003-09-02 06:51:27 51°17.02 2°58.62 12.3 342 16.4 102500 57
2003-09-02 06:51:31 51°17.03 2°58.64 13.6 338 16.4 102490 57
2003-09-02 06:51:37 51°17.04 2°58.67 11.9 352 16.4 102490 57
2003-09-02 06:51:41 51°17.05 2°58.69 13.3 341 16.4 102500 58
2003-09-02 06:51:47 51°17.06 2°58.72 14 346 16.4 102500 58
2003-09-02 06:51:51 51°17.07 2°58.74 13.7 351 16.4 102510 58
2003-09-02 06:51:57 51°17.08 2°58.77 14.3 346 16.4 102510 58
2003-09-02 06:52:01 51°17.09 2°58.79 14.9 344 16.4 102520 59
2003-09-02 06:52:07 51°17.1 2°58.82 15.1 341 16.4 102520 59
2003-09-02 06:52:11 51°17.11 2°58.84 14 339 16.4 102510 58
2003-09-02 06:52:17 51°17.12 2°58.87 13.3 344 16.4 102510 58
2003-09-02 06:52:21 51°17.13 2°58.89 14 347 16.4 102530 58
2003-09-02 06:52:27 51°17.14 2°58.92 13 345 16.4 102530 58
2003-09-02 06:52:31 51°17.15 2°58.94 14.8 342 16.4 102500 59
2003-09-02 06:52:37 51°17.16 2°58.97 14.1 342 16.4 102500 59
2003-09-02 06:52:41 51°17.17 2°58.99 15 343 16.4 102510 58
2003-09-02 06:52:47 51°17.18 2°59.02 14.1 339 16.4 102510 58
2003-09-02 06:52:51 51°17.19 2°59.04 12.9 343 16.4 102520 57
2003-09-02 06:52:57 51°17.2 2°59.07 13 339 16.4 102520 57
2003-09-02 06:53:01 51°17.21 2°59.09 13.2 339 16.4 102510 58
2003-09-02 06:53:07 51°17.22 2°59.12 13.8 341 16.4 102510 58
2003-09-02 06:53:11 51°17.23 2°59.14 14.2 338 16.4 102500 58
2003-09-02 06:53:17 51°17.24 2°59.17 14 339 16.4 102500 58
2003-09-02 06:53:21 51°17.25 2°59.19 14.9 342 16.4 102510 59
2003-09-02 06:53:27 51°17.26 2°59.23 14.5 339 16.4 102510 59
2003-09-02 06:53:31 51°17.27 2°59.25 14.4 335 16.4 102510 60
2003-09-02 06:53:37 51°17.28 2°59.28 14.2 334 16.4 102510 60
2003-09-02 06:53:41 51°17.29 2°59.3 13.3 338 16.4 102510 58
2003-09-02 06:53:47 51°17.3 2°59.33 13.6 334 16.4 102510 58
2003-09-02 06:53:51 51°17.31 2°59.35 13.2 334 16.4 102510 57
2003-09-02 06:53:57 51°17.32 2°59.38 13.5 333 16.4 102510 57
2003-09-02 06:54:01 51°17.33 2°59.4 13.7 336 16.3 102500 56
2003-09-02 06:54:07 51°17.34 2°59.43 12.5 340 16.3 102500 56
2003-09-02 06:54:11 51°17.35 2°59.45 13 338 16.3 102520 56
2003-09-02 06:54:17 51°17.36 2°59.48 13.4 339 16.3 102520 56
2003-09-02 06:54:21 51°17.37 2°59.5 13.1 334 16.3 102510 57
2003-09-02 06:54:27 51°17.38 2°59.53 13.4 337 16.3 102510 57
2003-09-02 06:54:31 51°17.39 2°59.55 12.9 341 16.4 102510 57
2003-09-02 06:54:37 51°17.4 2°59.58 13.9 342 16.4 102510 57
2003-09-02 06:54:41 51°17.41 2°59.6 13.5 342 16.3 102500 57
2003-09-02 06:54:47 51°17.42 2°59.63 15.2 342 16.3 102500 57
2003-09-02 06:54:51 51°17.43 2°59.65 14.2 342 16.4 102510 58
2003-09-02 06:54:57 51°17.44 2°59.68 13.3 342 16.4 102510 58
2003-09-02 06:55:01 51°17.45 2°59.7 13.6 338 16.4 102520 60
2003-09-02 06:55:07 51°17.46 2°59.74 14.4 338 16.4 102520 60
2003-09-02 06:55:11 51°17.47 2°59.76 13.6 338 16.4 102520 58
2003-09-02 06:55:17 51°17.48 2°59.79 13.5 341 16.4 102520 58
2003-09-02 06:55:21 51°17.49 2°59.81 12.6 336 16.4 102510 58
2003-09-02 06:55:27 51°17.5 2°59.84 13.5 338 16.4 102510 58
2003-09-02 06:55:31 51°17.51 2°59.86 14 342 16.3 102510 57
2003-09-02 06:55:37 51°17.52 2°59.89 12.3 339 16.3 102510 57
2003-09-02 06:55:41 51°17.53 2°59.91 12.9 336 16.3 102520 57
2003-09-02 06:55:47 51°17.54 2°59.94 13.3 336 16.3 102520 57
2003-09-02 06:55:51 51°17.55 2°59.96 13.9 338 16.3 102520 56
2003-09-02 06:55:57 51°17.56 2°59.99 13 338 16.3 102520 56
2003-09-02 06:56:01 51°17.57 3°0.01 12.4 340 16.3 102520 57
2003-09-02 06:56:07 51°17.58 3°0.04 11.6 345 16.3 102520 57
2003-09-02 06:56:11 51°17.59 3°0.06 13.1 342 16.3 102510 56
2003-09-02 06:56:17 51°17.6 3°0.09 11.6 342 16.3 102510 56
2003-09-02 06:56:21 51°17.61 3°0.11 13 342 16.4 102510 55
2003-09-02 06:56:27 51°17.62 3°0.14 12.6 342 16.4 102510 55
2003-09-02 06:56:31 51°17.63 3°0.16 12.6 342 16.3 102520 55
2003-09-02 06:56:37 51°17.64 3°0.2 13.2 346 16.3 102520 55
2003-09-02 06:56:41 51°17.65 3°0.22 13.7 348 16.4 102530 57
2003-09-02 06:56:47 51°17.66 3°0.25 14.7 346 16.4 102530 57
2003-09-02 06:56:51 51°17.67 3°0.27 13.5 345 16.4 102530 59
2003-09-02 06:56:57 51°17.68 3°0.3 12.7 346 16.4 102530 59
2003-09-02 06:57:01 51°17.69 3°0.32 13 343 16.4 102530 58
2003-09-02 06:57:07 51°17.7 3°0.35 13.1 344 16.4 102530 58
2003-09-02 06:57:11 51°17.71 3°0.37 14.4 341 16.4 102510 57
2003-09-02 06:57:17 51°17.72 3°0.4 13.3 346 16.4 102510 57
2003-09-02 06:57:21 51°17.73 3°0.42 12.8 348 16.4 102520 56
2003-09-02 06:57:27 51°17.74 3°0.45 13.4 342 16.4 102520 56
2003-09-02 06:57:31 51°17.75 3°0.47 12.8 345 16.4 102510 56
2003-09-02 06:57:37 51°17.76 3°0.5 12.8 343 16.4 102510 56
2003-09-02 06:57:41 51°17.77 3°0.52 13.3 347 16.4 102520 56
2003-09-02 06:57:47 51°17.78 3°0.55 13.3 342 16.4 102520 56
2003-09-02 06:57:51 51°17.79 3°0.57 12 346 16.4 102520 55
2003-09-02 06:57:57 51°17.8 3°0.6 12.8 345 16.4 102520 55
2003-09-02 06:58:01 51°17.81 3°0.62 13.4 345 16.4 102530 55
2003-09-02 06:58:07 51°17.82 3°0.65 13.4 347 16.4 102530 55
2003-09-02 06:58:11 51°17.83 3°0.67 13.4 342 16.4 102510 56
2003-09-02 06:58:17 51°17.84 3°0.7 12.9 347 16.4 102510 56
2003-09-02 06:58:21 51°17.85 3°0.73 13.7 344 16.4 102510 56
2003-09-02 06:58:27 51°17.86 3°0.75 12.2 345 16.4 102510 56
2003-09-02 06:58:31 51°17.87 3°0.78 12.7 346 16.4 102530 56
2003-09-02 06:58:37 51°17.88 3°0.81 13.1 344 16.4 102530 56
2003-09-02 06:58:41 51°17.89 3°0.83 11.6 346 16.4 102520 57
2003-09-02 06:58:47 51°17.9 3°0.86 12.8 343 16.4 102520 57
2003-09-02 06:58:51 51°17.91 3°0.88 13.2 348 16.4 102520 58
2003-09-02 06:58:57 51°17.92 3°0.91 12.7 342 16.4 102520 58
2003-09-02 06:59:01 51°17.93 3°0.93 13.7 341 16.4 102530 58
2003-09-02 06:59:07 51°17.94 3°0.96 12.2 338 16.4 102530 58
2003-09-02 06:59:11 51°17.95 3°0.98 13.1 343 16.4 102530 57
2003-09-02 06:59:17 51°17.96 3°1.01 13.3 340 16.4 102530 57
2003-09-02 06:59:21 51°17.97 3°1.03 12.6 345 16.4 102530 57
2003-09-02 06:59:27 51°17.98 3°1.06 13.4 336 16.4 102530 57
2003-09-02 06:59:31 51°17.99 3°1.08 13 339 16.4 102520 57
2003-09-02 06:59:37 51°18 3°1.11 12.9 340 16.4 102520 57
2003-09-02 06:59:41 51°18.01 3°1.13 13.1 341 16.4 102520 58
2003-09-02 06:59:47 51°18.02 3°1.16 12.4 339 16.4 102520 58
2003-09-02 06:59:51 51°18.03 3°1.18 13.7 344 16.4 102520 59
2003-09-02 06:59:57 51°18.04 3°1.21 13 343 16.4 102520 59
2003-09-02 07:00:01 51°18.05 3°1.23 13 340 16.5 102520 61
2003-09-02 07:00:07 51°18.06 3°1.26 13.1 341 16.5 102520 61
2003-09-02 07:00:11 51°18.07 3°1.28 12.3 343 16.4 102520 59
2003-09-02 07:00:17 51°18.08 3°1.31 12.5 343 16.4 102520 59
2003-09-02 07:00:21 51°18.09 3°1.33 12.1 341 16.4 102510 58
2003-09-02 07:00:27 51°18.1 3°1.36 12.5 338 16.4 102510 58
2003-09-02 07:00:31 51°18.11 3°1.38 12.7 342 16.4 102520 58
2003-09-02 07:00:37 51°18.12 3°1.41 11.4 343 16.4 102520 58
2003-09-02 07:00:41 51°18.13 3°1.43 11.8 335 16.4 102520 58
2003-09-02 07:00:47 51°18.14 3°1.47 12.4 338 16.4 102520 58
2003-09-02 07:00:51 51°18.15 3°1.49 12.1 340 16.4 102530 57
2003-09-02 07:00:57 51°18.16 3°1.52 13.1 341 16.4 102530 57
2003-09-02 07:01:01 51°18.17 3°1.54 13.2 338 16.3 102520 56
2003-09-02 07:01:07 51°18.18 3°1.57 11.6 336 16.3 102520 56
2003-09-02 07:01:11 51°18.19 3°1.59 12.6 340 16.3 102530 57
2003-09-02 07:01:17 51°18.2 3°1.62 12.9 337 16.3 102530 57
2003-09-02 07:01:21 51°18.21 3°1.64 12.4 343 16.4 102520 58
2003-09-02 07:01:27 51°18.22 3°1.67 13 337 16.4 102520 58
2003-09-02 07:01:31 51°18.23 3°1.69 12.5 335 16.4 102530 57
2003-09-02 07:01:37 51°18.24 3°1.72 13.5 335 16.4 102530 57
2003-09-02 07:01:41 51°18.25 3°1.74 13.2 332 16.4 102520 58
2003-09-02 07:01:47 51°18.26 3°1.77 12.5 334 16.4 102520 58
2003-09-02 07:01:51 51°18.27 3°1.79 12.1 338 16.3 102530 56
2003-09-02 07:01:57 51°18.28 3°1.82 12.4 337 16.3 102530 56
2003-09-02 07:02:01 51°18.29 3°1.84 11.4 337 16.3 102540 56
2003-09-02 07:02:07 51°18.3 3°1.87 12 335 16.3 102540 56
2003-09-02 07:02:11 51°18.31 3°1.89 12 339 16.3 102520 57
2003-09-02 07:02:17 51°18.32 3°1.92 11.9 345 16.3 102520 57
2003-09-02 07:02:21 51°18.33 3°1.94 11.7 342 16.3 102510 55
2003-09-02 07:02:27 51°18.34 3°1.97 12.2 337 16.3 102510 55
2003-09-02 07:02:31 51°18.35 3°1.99 12.3 335 16.4 102540 56
2003-09-02 07:02:37 51°18.36 3°2.02 14 335 16.4 102540 56
2003-09-02 07:02:41 51°18.37 3°2.04 13.8 339 16.4 102530 57
2003-09-02 07:02:47 51°18.38 3°2.07 14.9 333 16.4 102530 57
2003-09-02 07:02:51 51°18.39 3°2.09 14 332 16.4 102530 56
2003-09-02 07:02:57 51°18.4 3°2.12 12.7 336 16.4 102530 56
2003-09-02 07:03:01 51°18.41 3°2.14 12.9 341 16.4 102530 55
2003-09-02 07:03:07 51°18.42 3°2.17 13.8 347 16.4 102530 55
2003-09-02 07:03:11 51°18.43 3°2.19 13.5 344 16.3 102510 53
2003-09-02 07:03:17 51°18.45 3°2.22 12.7 344 16.3 102510 53
2003-09-02 07:03:21 51°18.46 3°2.24 13.2 342 16.4 102520 54
2003-09-02 07:03:27 51°18.47 3°2.27 13.2 342 16.4 102520 54
2003-09-02 07:03:31 51°18.48 3°2.29 14 343 16.4 102520 56
2003-09-02 07:03:37 51°18.49 3°2.31 14.5 342 16.4 102520 56
2003-09-02 07:03:41 51°18.5 3°2.33 12.7 346 16.4 102520 54
2003-09-02 07:03:47 51°18.52 3°2.36 13 344 16.4 102520 54
2003-09-02 07:03:51 51°18.52 3°2.38 12.7 344 16.4 102510 54
2003-09-02 07:03:57 51°18.54 3°2.41 13 340 16.4 102510 54
2003-09-02 07:04:01 51°18.55 3°2.43 12.9 341 16.4 102510 55
2003-09-02 07:04:07 51°18.56 3°2.46 12.3 340 16.4 102510 55
2003-09-02 07:04:11 51°18.57 3°2.47 12.9 339 16.4 102520 53
2003-09-02 07:04:17 51°18.58 3°2.5 12.6 336 16.4 102520 53
2003-09-02 07:04:21 51°18.59 3°2.52 12.4 344 16.4 102530 54
2003-09-02 07:04:27 51°18.61 3°2.55 12.2 343 16.4 102530 54
2003-09-02 07:04:31 51°18.62 3°2.57 13.3 343 16.4 102520 54
2003-09-02 07:04:37 51°18.63 3°2.59 13 341 16.4 102520 54
2003-09-02 07:04:41 51°18.64 3°2.61 12.8 345 16.4 102530 57
2003-09-02 07:04:47 51°18.65 3°2.64 13.1 345 16.4 102530 57
2003-09-02 07:04:51 51°18.66 3°2.66 12.6 344 16.5 102520 58
2003-09-02 07:04:57 51°18.68 3°2.69 12.5 346 16.5 102520 58
2003-09-02 07:05:01 51°18.68 3°2.71 12.4 344 16.5 102540 57
2003-09-02 07:05:07 51°18.7 3°2.74 12.2 345 16.5 102540 57
2003-09-02 07:05:11 51°18.71 3°2.76 14.1 348 16.5 102520 57
2003-09-02 07:05:17 51°18.72 3°2.78 12.5 348 16.5 102520 57
2003-09-02 07:05:21 51°18.73 3°2.8 13.4 342 16.5 102530 58
2003-09-02 07:05:27 51°18.74 3°2.83 12.5 344 16.5 102530 58
2003-09-02 07:05:31 51°18.75 3°2.85 13.4 347 16.5 102520 58
2003-09-02 07:05:37 51°18.76 3°2.88 14.4 349 16.5 102520 58
2003-09-02 07:05:41 51°18.77 3°2.9 13.4 349 16.4 102520 56
2003-09-02 07:05:47 51°18.79 3°2.92 13.4 349 16.4 102520 56
2003-09-02 07:05:51 51°18.8 3°2.94 13.8 347 16.4 102530 57
2003-09-02 07:05:57 51°18.81 3°2.97 12.7 348 16.4 102530 57
2003-09-02 07:06:01 51°18.82 3°2.99 12.8 340 16.4 102520 56
2003-09-02 07:06:07 51°18.83 3°3.02 12.3 349 16.4 102520 56
2003-09-02 07:06:11 51°18.84 3°3.04 13.4 348 16.4 102520 56
2003-09-02 07:06:17 51°18.85 3°3.07 13.4 345 16.4 102520 56
2003-09-02 07:06:21 51°18.86 3°3.08 12.5 350 16.4 102520 55
2003-09-02 07:06:27 51°18.88 3°3.11 13.1 345 16.4 102520 55
2003-09-02 07:06:31 51°18.89 3°3.13 13.6 352 16.4 102520 56
2003-09-02 07:06:37 51°18.9 3°3.16 12.1 349 16.4 102520 56
2003-09-02 07:06:41 51°18.91 3°3.18 12.7 342 16.4 102520 57
2003-09-02 07:06:47 51°18.92 3°3.21 11.4 342 16.4 102520 57
2003-09-02 07:06:51 51°18.93 3°3.23 11.6 343 16.4 102510 58
2003-09-02 07:06:57 51°18.94 3°3.26 12.3 346 16.4 102510 58
2003-09-02 07:07:01 51°18.95 3°3.27 12.5 350 16.4 102530 56
2003-09-02 07:07:07 51°18.97 3°3.3 13 349 16.4 102530 56
2003-09-02 07:07:11 51°18.98 3°3.32 12.9 346 16.4 102520 56
2003-09-02 07:07:17 51°18.99 3°3.35 13.3 351 16.4 102520 56
2003-09-02 07:07:21 51°19 3°3.37 12.6 354 16.4 102520 57
2003-09-02 07:07:27 51°19.01 3°3.4 11.9 350 16.4 102520 57
2003-09-02 07:07:31 51°19.02 3°3.42 13.3 348 16.4 102520 57
2003-09-02 07:07:37 51°19.04 3°3.44 12.3 348 16.4 102520 57
2003-09-02 07:07:41 51°19.04 3°3.46 12.2 350 16.4 102540 56
2003-09-02 07:07:47 51°19.06 3°3.49 11.9 351 16.4 102540 56
2003-09-02 07:07:51 51°19.07 3°3.51 11.7 353 16.4 102530 56
2003-09-02 07:07:57 51°19.08 3°3.54 12.7 349 16.4 102530 56
2003-09-02 07:08:01 51°19.09 3°3.56 12.3 348 16.3 102520 55
2003-09-02 07:08:07 51°19.1 3°3.58 11.2 351 16.3 102520 55
2003-09-02 07:08:11 51°19.11 3°3.6 12.1 350 16.3 102530 56
2003-09-02 07:08:17 51°19.13 3°3.63 11.5 352 16.3 102530 56
2003-09-02 07:08:21 51°19.13 3°3.65 12.4 345 16.3 102530 56
2003-09-02 07:08:27 51°19.15 3°3.68 13 348 16.3 102530 56
2003-09-02 07:08:31 51°19.16 3°3.7 12.4 350 16.3 102530 55
2003-09-02 07:08:37 51°19.17 3°3.73 13.3 347 16.3 102530 55
2003-09-02 07:08:41 51°19.18 3°3.74 12.1 348 16.3 102530 57
2003-09-02 07:08:47 51°19.19 3°3.77 13.2 350 16.3 102530 57
2003-09-02 07:08:51 51°19.2 3°3.79 12.7 345 16.3 102530 58
2003-09-02 07:08:57 51°19.21 3°3.82 12.7 349 16.3 102530 58
2003-09-02 07:09:01 51°19.22 3°3.84 12.3 349 16.4 102540 58
2003-09-02 07:09:07 51°19.24 3°3.86 11.9 348 16.4 102540 58
2003-09-02 07:09:11 51°19.25 3°3.88 12.2 350 16.4 102530 58
2003-09-02 07:09:17 51°19.26 3°3.91 11 348 16.4 102530 58
2003-09-02 07:09:21 51°19.27 3°3.93 11.5 349 16.4 102530 58
2003-09-02 07:09:27 51°19.28 3°3.96 10.5 352 16.4 102530 58
2003-09-02 07:09:31 51°19.29 3°3.98 10.9 350 16.3 102540 58
2003-09-02 07:09:37 51°19.31 3°4 12.1 350 16.3 102540 58
2003-09-02 07:09:41 51°19.32 3°4.02 11.3 346 16.3 102530 56
2003-09-02 07:09:47 51°19.33 3°4.05 11.2 354 16.3 102530 56
2003-09-02 07:09:51 51°19.34 3°4.07 11.6 345 16.3 102530 57
2003-09-02 07:09:57 51°19.35 3°4.1 11 347 16.3 102530 57
2003-09-02 07:10:01 51°19.36 3°4.11 11.2 355 16.3 102530 58
2003-09-02 07:10:07 51°19.37 3°4.14 12.3 345 16.3 102530 58
2003-09-02 07:10:11 51°19.38 3°4.16 11.7 352 16.3 102540 59
2003-09-02 07:10:17 51°19.4 3°4.19 12.4 354 16.3 102540 59
2003-09-02 07:10:21 51°19.4 3°4.21 12 354 16.4 102540 61
2003-09-02 07:10:27 51°19.42 3°4.24 12.9 352 16.4 102540 61
2003-09-02 07:10:31 51°19.43 3°4.26 11.5 355 16.4 102550 60
2003-09-02 07:10:37 51°19.44 3°4.28 12.2 351 16.4 102550 60
2003-09-02 07:10:41 51°19.45 3°4.3 12.1 348 16.3 102540 58
2003-09-02 07:10:47 51°19.46 3°4.33 12.2 350 16.3 102540 58
2003-09-02 07:10:51 51°19.47 3°4.35 11.1 355 16.3 102540 58
2003-09-02 07:10:57 51°19.49 3°4.38 11.6 355 16.3 102540 58
2003-09-02 07:11:01 51°19.49 3°4.4 11.7 353 16.3 102540 58
2003-09-02 07:11:07 51°19.51 3°4.42 10.9 356 16.3 102540 58
2003-09-02 07:11:11 51°19.52 3°4.44 11.2 351 16.3 102540 57
2003-09-02 07:11:17 51°19.53 3°4.47 10.9 345 16.3 102540 57
2003-09-02 07:11:21 51°19.54 3°4.49 11.3 348 16.3 102540 59
2003-09-02 07:11:27 51°19.55 3°4.52 12.8 352 16.3 102540 59
2003-09-02 07:11:31 51°19.56 3°4.54 12.7 349 16.3 102540 59
2003-09-02 07:11:37 51°19.57 3°4.57 12 350 16.3 102540 59
2003-09-02 07:11:41 51°19.58 3°4.58 11.7 350 16.3 102540 58
2003-09-02 07:11:47 51°19.6 3°4.61 10.4 353 16.3 102540 58
2003-09-02 07:11:51 51°19.6 3°4.63 11 349 16.3 102540 59
2003-09-02 07:11:57 51°19.62 3°4.66 11.3 352 16.3 102540 59
2003-09-02 07:12:01 51°19.63 3°4.68 11.4 347 16.3 102540 59
2003-09-02 07:12:07 51°19.64 3°4.71 11 357 16.3 102540 59
2003-09-02 07:12:11 51°19.65 3°4.73 12.2 347 16.3 102540 59
2003-09-02 07:12:17 51°19.66 3°4.75 11.7 351 16.3 102540 59
2003-09-02 07:12:21 51°19.67 3°4.77 12.3 344 16.2 102540 59
2003-09-02 07:12:27 51°19.68 3°4.8 11 347 16.2 102540 59
2003-09-02 07:12:31 51°19.69 3°4.82 11 346 16.2 102550 60
2003-09-02 07:12:37 51°19.71 3°4.85 10.7 351 16.2 102550 60
2003-09-02 07:12:41 51°19.72 3°4.86 12.3 347 16.3 102540 61
2003-09-02 07:12:47 51°19.73 3°4.89 10.7 350 16.3 102540 61
2003-09-02 07:12:51 51°19.74 3°4.91 11 344 16.3 102540 60
2003-09-02 07:12:57 51°19.75 3°4.94 11.5 344 16.3 102540 60
2003-09-02 07:13:01 51°19.76 3°4.96 12.6 343 16.3 102550 61
2003-09-02 07:13:07 51°19.77 3°4.99 11.7 349 16.3 102550 61
2003-09-02 07:13:11 51°19.78 3°5 11.3 346 16.3 102530 59
2003-09-02 07:13:17 51°19.8 3°5.03 12 342 16.3 102530 59
2003-09-02 07:13:21 51°19.8 3°5.05 9.6 349 16.3 102540 60
2003-09-02 07:13:27 51°19.82 3°5.08 10.9 350 16.3 102540 60
2003-09-02 07:13:31 51°19.83 3°5.1 11.4 348 16.3 102540 59
2003-09-02 07:13:37 51°19.84 3°5.12 11.1 349 16.3 102540 59
2003-09-02 07:13:41 51°19.85 3°5.14 11.6 353 16.3 102550 59
2003-09-02 07:13:47 51°19.86 3°5.17 11.1 350 16.3 102550 59
2003-09-02 07:13:51 51°19.87 3°5.19 11.5 349 16.3 102540 59
2003-09-02 07:13:57 51°19.88 3°5.22 11.4 347 16.3 102540 59
2003-09-02 07:14:01 51°19.89 3°5.23 10.6 348 16.2 102540 59
2003-09-02 07:14:07 51°19.91 3°5.26 11.6 349 16.2 102540 59
2003-09-02 07:14:11 51°19.91 3°5.28 11.1 345 16.3 102540 60
2003-09-02 07:14:17 51°19.93 3°5.31 12.1 340 16.3 102540 60
2003-09-02 07:14:21 51°19.94 3°5.33 11.7 339 16.2 102540 60
2003-09-02 07:14:27 51°19.95 3°5.36 12.1 346 16.2 102540 60
2003-09-02 07:14:31 51°19.96 3°5.38 12.2 344 16.3 102540 60
2003-09-02 07:14:37 51°19.97 3°5.4 11.7 342 16.3 102540 60
2003-09-02 07:14:41 51°19.98 3°5.42 11.6 348 16.3 102540 60
2003-09-02 07:14:47 51°19.99 3°5.45 11.8 348 16.3 102540 60
2003-09-02 07:14:51 51°20 3°5.47 11 347 16.3 102530 60
2003-09-02 07:14:57 51°20.02 3°5.49 11.4 349 16.3 102530 60
2003-09-02 07:15:01 51°20.03 3°5.51 11.4 343 16.3 102540 61
2003-09-02 07:15:07 51°20.04 3°5.54 12.5 342 16.3 102540 61
2003-09-02 07:15:11 51°20.05 3°5.56 11.6 342 16.3 102540 60
2003-09-02 07:15:17 51°20.06 3°5.59 11.2 346 16.3 102540 60
2003-09-02 07:15:21 51°20.07 3°5.61 11.1 341 16.3 102540 60
2003-09-02 07:15:27 51°20.08 3°5.63 11.2 340 16.3 102540 60
2003-09-02 07:15:31 51°20.09 3°5.65 11.6 344 16.3 102550 60
2003-09-02 07:15:37 51°20.11 3°5.68 10.9 348 16.3 102550 60
2003-09-02 07:15:41 51°20.11 3°5.7 11 343 16.3 102540 60
2003-09-02 07:15:47 51°20.13 3°5.73 10.8 344 16.3 102540 60
2003-09-02 07:15:51 51°20.14 3°5.74 11.8 341 16.3 102540 60
2003-09-02 07:15:57 51°20.15 3°5.77 10.4 349 16.3 102540 60
2003-09-02 07:16:01 51°20.16 3°5.79 11.1 343 16.2 102550 60
2003-09-02 07:16:07 51°20.17 3°5.82 11.7 341 16.2 102550 60
2003-09-02 07:16:11 51°20.18 3°5.83 10.6 340 16.2 102530 59
2003-09-02 07:16:17 51°20.2 3°5.86 9.3 341 16.2 102530 59
2003-09-02 07:16:21 51°20.2 3°5.88 10.8 337 16.2 102530 59
2003-09-02 07:16:27 51°20.22 3°5.91 11.7 339 16.2 102530 59
2003-09-02 07:16:31 51°20.23 3°5.93 10.9 346 16.2 102540 60
2003-09-02 07:16:37 51°20.24 3°5.96 11.1 342 16.2 102540 60
2003-09-02 07:16:41 51°20.25 3°5.97 10.7 337 16.2 102540 61
2003-09-02 07:16:47 51°20.26 3°6 9.8 339 16.2 102540 61
2003-09-02 07:16:51 51°20.27 3°6.02 10.3 340 16.2 102550 60
2003-09-02 07:16:57 51°20.28 3°6.05 10.4 340 16.2 102550 60
2003-09-02 07:17:01 51°20.29 3°6.07 10.7 345 16.2 102550 60
2003-09-02 07:17:07 51°20.3 3°6.09 9.9 349 16.2 102550 60
2003-09-02 07:17:11 51°20.31 3°6.11 11.6 343 16.2 102550 59
2003-09-02 07:17:17 51°20.33 3°6.14 10.6 350 16.2 102550 59
2003-09-02 07:17:21 51°20.34 3°6.16 10.3 344 16.2 102550 60
2003-09-02 07:17:27 51°20.35 3°6.19 11 348 16.2 102550 60
2003-09-02 07:17:31 51°20.36 3°6.21 10.8 349 16.2 102540 60
2003-09-02 07:17:37 51°20.37 3°6.24 10.5 344 16.2 102540 60
2003-09-02 07:17:41 51°20.38 3°6.26 10.8 346 16.2 102550 60
2003-09-02 07:17:47 51°20.39 3°6.28 10.6 334 16.2 102550 60
2003-09-02 07:17:51 51°20.4 3°6.3 10 342 16.2 102550 60
2003-09-02 07:17:57 51°20.41 3°6.33 10.3 348 16.2 102550 60
2003-09-02 07:18:01 51°20.42 3°6.35 10 351 16.2 102560 60
2003-09-02 07:18:07 51°20.44 3°6.38 11.2 341 16.2 102560 60
2003-09-02 07:18:11 51°20.45 3°6.4 11.2 339 16.2 102550 60
2003-09-02 07:18:17 51°20.46 3°6.42 13.1 335 16.2 102550 60
2003-09-02 07:18:21 51°20.47 3°6.44 14 329 16.2 102550 60
2003-09-02 07:18:27 51°20.48 3°6.47 13.3 319 16.2 102550 60
2003-09-02 07:18:31 51°20.49 3°6.49 13 325 16.2 102550 61
2003-09-02 07:18:37 51°20.5 3°6.52 13.3 345 16.2 102550 61
2003-09-02 07:18:41 51°20.51 3°6.54 15.7 355 16.2 102540 62
2003-09-02 07:18:47 51°20.53 3°6.57 13 4 16.2 102540 62
2003-09-02 07:18:51 51°20.53 3°6.58 13.3 356 16.3 102550 63
2003-09-02 07:18:57 51°20.55 3°6.61 11.4 1 16.3 102550 63
2003-09-02 07:19:01 51°20.56 3°6.63 10 360 16.3 102520 64
2003-09-02 07:19:07 51°20.57 3°6.66 11.6 18 16.3 102520 64
2003-09-02 07:19:11 51°20.58 3°6.68 11.9 16 16.3 102540 63
2003-09-02 07:19:17 51°20.59 3°6.7 11.6 17 16.3 102540 63
2003-09-02 07:19:21 51°20.6 3°6.72 10.2 18 16.2 102540 64
2003-09-02 07:19:27 51°20.61 3°6.75 11.3 10 16.2 102540 64
2003-09-02 07:19:31 51°20.62 3°6.77 11.4 10 16.2 102550 63
2003-09-02 07:19:37 51°20.64 3°6.8 11.9 11 16.2 102550 63
2003-09-02 07:19:41 51°20.64 3°6.81 12.3 9 16.2 102550 62
2003-09-02 07:19:47 51°20.66 3°6.84 13.3 8 16.2 102550 62
2003-09-02 07:19:51 51°20.67 3°6.86 12.9 12 16.2 102540 63
2003-09-02 07:19:57 51°20.68 3°6.89 12.6 13 16.2 102540 63
2003-09-02 07:20:01 51°20.69 3°6.91 13.4 12 16.2 102560 65
2003-09-02 07:20:07 51°20.7 3°6.94 12.9 8 16.2 102560 65
2003-09-02 07:20:11 51°20.71 3°6.95 13.2 7 16.2 102560 65
2003-09-02 07:20:17 51°20.72 3°6.98 12.1 8 16.2 102560 65
2003-09-02 07:20:21 51°20.73 3°7 13.4 6 16.1 102550 63
2003-09-02 07:20:27 51°20.74 3°7.03 13.2 16 16.1 102550 63
2003-09-02 07:20:31 51°20.75 3°7.05 13.1 13 16.1 102550 64
2003-09-02 07:20:37 51°20.76 3°7.08 12.4 11 16.1 102550 64
2003-09-02 07:20:41 51°20.77 3°7.09 13.4 9 16.1 102550 64
2003-09-02 07:20:47 51°20.79 3°7.12 11.8 11 16.1 102550 64
2003-09-02 07:20:51 51°20.8 3°7.14 11.5 15 16 102550 64
2003-09-02 07:20:57 51°20.81 3°7.17 13.1 9 16 102550 64
2003-09-02 07:21:01 51°20.82 3°7.18 12.5 14 16 102560 64
2003-09-02 07:21:07 51°20.83 3°7.21 12.8 17 16 102560 64
2003-09-02 07:21:11 51°20.84 3°7.23 12.3 12 15.9 102550 65
2003-09-02 07:21:17 51°20.85 3°7.26 13.1 12 15.9 102550 65
2003-09-02 07:21:21 51°20.86 3°7.27 12.9 16 15.9 102560 66
2003-09-02 07:21:27 51°20.88 3°7.3 12.6 12 15.9 102560 66
2003-09-02 07:21:31 51°20.89 3°7.32 12.9 14 15.9 102550 66
2003-09-02 07:21:37 51°20.9 3°7.35 13.1 14 15.9 102550 66
2003-09-02 07:21:41 51°20.91 3°7.37 12.2 15 15.9 102560 66
2003-09-02 07:21:47 51°20.92 3°7.39 12.6 7 15.9 102560 66
2003-09-02 07:21:51 51°20.93 3°7.41 12.4 10 15.9 102560 65
2003-09-02 07:21:57 51°20.94 3°7.44 13.5 13 15.9 102560 65
2003-09-02 07:22:01 51°20.95 3°7.46 12.6 14 15.8 102550 66
2003-09-02 07:22:07 51°20.97 3°7.49 12.2 15 15.8 102550 66
2003-09-02 07:22:11 51°20.97 3°7.51 13.4 19 15.9 102550 67
2003-09-02 07:22:17 51°20.99 3°7.53 12.1 18 15.9 102550 67
2003-09-02 07:22:21 51°21 3°7.55 13.6 12 15.9 102540 66
2003-09-02 07:22:27 51°21.01 3°7.58 14 9 15.9 102540 66
2003-09-02 07:22:31 51°21.01 3°7.6 13.7 8 15.8 102530 66
2003-09-02 07:22:37 51°21.02 3°7.63 13.4 4 15.8 102530 66
2003-09-02 07:22:41 51°21.03 3°7.66 13.6 7 15.8 102530 66
2003-09-02 07:22:47 51°21.04 3°7.69 13.8 4 15.8 102530 66
2003-09-02 07:22:51 51°21.05 3°7.71 13.8 8 15.8 102540 66
2003-09-02 07:22:57 51°21.06 3°7.74 13.8 6 15.8 102540 66
2003-09-02 07:23:01 51°21.07 3°7.76 13.7 3 15.8 102540 66
2003-09-02 07:23:07 51°21.08 3°7.79 13.2 3 15.8 102540 66
2003-09-02 07:23:11 51°21.09 3°7.81 13.9 4 15.8 102540 66
2003-09-02 07:23:17 51°21.1 3°7.84 12.7 7 15.8 102540 66
2003-09-02 07:23:21 51°21.1 3°7.86 13.5 4 15.8 102540 65
2003-09-02 07:23:27 51°21.11 3°7.89 12.6 1 15.8 102540 65
2003-09-02 07:23:31 51°21.12 3°7.91 13.3 359 15.7 102550 64
2003-09-02 07:23:37 51°21.13 3°7.94 12.4 1 15.7 102550 64
2003-09-02 07:23:41 51°21.14 3°7.96 12.5 1 15.7 102540 64
2003-09-02 07:23:47 51°21.15 3°7.99 13.4 1 15.7 102540 64
2003-09-02 07:23:51 51°21.15 3°8.01 13.3 3 15.7 102550 65
2003-09-02 07:23:57 51°21.16 3°8.04 12.4 8 15.7 102550 65
2003-09-02 07:24:01 51°21.17 3°8.06 11.9 5 15.7 102550 65
2003-09-02 07:24:07 51°21.18 3°8.1 13.7 1 15.7 102550 65
2003-09-02 07:24:11 51°21.19 3°8.12 13 1 15.7 102550 65
2003-09-02 07:24:17 51°21.2 3°8.15 12.3 359 15.7 102550 65
2003-09-02 07:24:21 51°21.2 3°8.17 12.5 2 15.7 102550 65
2003-09-02 07:24:27 51°21.21 3°8.2 13.2 6 15.7 102550 65
2003-09-02 07:24:31 51°21.22 3°8.22 12.6 2 15.7 102560 66
2003-09-02 07:24:37 51°21.23 3°8.25 12.5 358 15.7 102560 66
2003-09-02 07:24:41 51°21.24 3°8.27 12.4 359 15.7 102550 65
2003-09-02 07:24:47 51°21.25 3°8.3 12.4   15.7 102550 65
2003-09-02 07:24:51 51°21.25 3°8.32 12.6 357 15.7 102540 65
2003-09-02 07:24:57 51°21.26 3°8.35 11.9 3 15.7 102540 65
2003-09-02 07:25:01 51°21.27 3°8.37 13.1 6 15.7 102560 65
2003-09-02 07:25:07 51°21.28 3°8.4 13.3 4 15.7 102560 65
2003-09-02 07:25:11 51°21.29 3°8.42 12.2 5 15.7 102550 67
2003-09-02 07:25:17 51°21.3 3°8.45 11.9 1 15.7 102550 67
2003-09-02 07:25:21 51°21.31 3°8.47 11.9 353 15.7 102560 67
2003-09-02 07:25:27 51°21.32 3°8.5 12.3 353 15.7 102560 67
2003-09-02 07:25:31 51°21.32 3°8.52 11.3 356 15.7 102560 67
2003-09-02 07:25:37 51°21.33 3°8.55 12.2 350 15.7 102560 67
2003-09-02 07:25:41 51°21.34 3°8.57 11.7 351 15.7 102550 67
2003-09-02 07:25:47 51°21.35 3°8.6 12.2 348 15.7 102550 67
2003-09-02 07:25:51 51°21.36 3°8.62 12.7 348 15.7 102550 68
2003-09-02 07:25:57 51°21.37 3°8.65 12.7 345 15.7 102550 68
2003-09-02 07:26:01 51°21.37 3°8.67 13.2 349 15.7 102540 68
2003-09-02 07:26:07 51°21.38 3°8.7 11.9 350 15.7 102540 68
2003-09-02 07:26:11 51°21.39 3°8.72 12.6 349 15.7 102550 67
2003-09-02 07:26:17 51°21.4 3°8.75 12.8 347 15.7 102550 67
2003-09-02 07:26:21 51°21.41 3°8.77 12.8 350 15.7 102550 66
2003-09-02 07:26:27 51°21.42 3°8.8 12.6 351 15.7 102550 66
2003-09-02 07:26:31 51°21.42 3°8.82 11.1 353 15.6 102540 66
2003-09-02 07:26:37 51°21.43 3°8.85 13 351 15.6 102540 66
2003-09-02 07:26:41 51°21.44 3°8.87 11.3 351 15.6 102550 66
2003-09-02 07:26:47 51°21.45 3°8.9 11.9 348 15.6 102550 66
2003-09-02 07:26:51 51°21.46 3°8.92 11.5 353 15.6 102550 66
2003-09-02 07:26:57 51°21.47 3°8.95 11 349 15.6 102550 66
2003-09-02 07:27:01 51°21.48 3°8.97 10.2 351 15.6 102550 66
2003-09-02 07:27:07 51°21.49 3°9 10.5 347 15.6 102550 66
2003-09-02 07:27:11 51°21.49 3°9.02 10.1 351 15.6 102550 65
2003-09-02 07:27:17 51°21.5 3°9.05 10.3 347 15.6 102550 65
2003-09-02 07:27:21 51°21.51 3°9.07 11 346 15.6 102550 66
2003-09-02 07:27:27 51°21.52 3°9.1 11.2 343 15.6 102550 66
2003-09-02 07:27:31 51°21.53 3°9.12 10.6 348 15.6 102560 66
2003-09-02 07:27:37 51°21.54 3°9.16 10.9 343 15.6 102560 66
2003-09-02 07:27:41 51°21.55 3°9.17 11 346 15.6 102570 67
2003-09-02 07:27:47 51°21.56 3°9.2 11.3 346 15.6 102570 67
2003-09-02 07:27:51 51°21.56 3°9.22 10.6 346 15.6 102560 67
2003-09-02 07:27:57 51°21.57 3°9.25 10.4 347 15.6 102560 67
2003-09-02 07:28:01 51°21.58 3°9.27 10.4 343 15.6 102570 68
2003-09-02 07:28:07 51°21.59 3°9.31 10.7 344 15.6 102570 68
2003-09-02 07:28:11 51°21.6 3°9.33 9.7 346 15.6 102560 69
2003-09-02 07:28:17 51°21.61 3°9.36 10.1 346 15.6 102560 69
2003-09-02 07:28:21 51°21.61 3°9.38 12.1 346 15.5 102560 68
2003-09-02 07:28:27 51°21.62 3°9.41 11.8 344 15.5 102560 68
2003-09-02 07:28:31 51°21.63 3°9.43 10.4 347 15.5 102550 68
2003-09-02 07:28:37 51°21.64 3°9.46 10.7 347 15.5 102550 68
2003-09-02 07:28:41 51°21.64 3°9.48 10.3 344 15.5 102560 69
2003-09-02 07:28:47 51°21.65 3°9.51 10.8 352 15.5 102560 69
2003-09-02 07:28:51 51°21.66 3°9.53 11.2 358 15.5 102560 69
2003-09-02 07:28:57 51°21.67 3°9.56 10.3 356 15.5 102560 69
2003-09-02 07:29:01 51°21.68 3°9.58 10.1 354 15.5 102560 69
2003-09-02 07:29:07 51°21.69 3°9.61 10.2 358 15.5 102560 69
2003-09-02 07:29:11 51°21.69 3°9.63 11.6 353 15.5 102550 69
2003-09-02 07:29:17 51°21.7 3°9.66 10.4 355 15.5 102550 69
2003-09-02 07:29:21 51°21.71 3°9.68 10.3 356 15.5 102570 69
2003-09-02 07:29:27 51°21.72 3°9.71 9.4 356 15.5 102570 69
2003-09-02 07:29:31 51°21.72 3°9.72 9.7 359 15.4 102560 70
2003-09-02 07:29:37 51°21.73 3°9.76 9.9 354 15.4 102560 70
2003-09-02 07:29:41 51°21.74 3°9.77 9.9 355 15.4 102570 69
2003-09-02 07:29:47 51°21.75 3°9.8 9.7 353 15.4 102570 69
2003-09-02 07:29:51 51°21.76 3°9.82 10.1 353 15.3 102570 69
2003-09-02 07:29:57 51°21.77 3°9.85 9.4 350 15.3 102570 69
2003-09-02 07:30:01 51°21.77 3°9.87 10.2 348 15.3 102580 70
2003-09-02 07:30:07 51°21.78 3°9.9 9.9 358 15.3 102580 70
2003-09-02 07:30:11 51°21.79 3°9.92 9.5 356 15.2 102570 70
2003-09-02 07:30:17 51°21.8 3°9.95 9.8 352 15.2 102570 70
2003-09-02 07:30:21 51°21.81 3°9.97 9.9 353 15.2 102570 70
2003-09-02 07:30:27 51°21.82 3°10 9.5 346 15.2 102570 70
2003-09-02 07:30:31 51°21.82 3°10.02 8.8 349 15.1 102570 70
2003-09-02 07:30:37 51°21.83 3°10.05 9.7 349 15.1 102570 70
2003-09-02 07:30:41 51°21.84 3°10.07 9 343 15.1 102570 70
2003-09-02 07:30:47 51°21.85 3°10.1 9.3 358 15.1 102570 70
2003-09-02 07:30:51 51°21.85 3°10.12 8.9 354 15 102570 71
2003-09-02 07:30:57 51°21.86 3°10.15 8.5 354 15 102570 71
2003-09-02 07:31:01 51°21.87 3°10.17 8.5 349 15 102570 70
2003-09-02 07:31:07 51°21.88 3°10.2 9.3 351 15 102570 70
2003-09-02 07:31:11 51°21.88 3°10.22 9 349 15 102570 71
2003-09-02 07:31:17 51°21.89 3°10.25 9.2 349 15 102570 71
2003-09-02 07:31:21 51°21.9 3°10.27 9.4 346 14.9 102580 71
2003-09-02 07:31:27 51°21.91 3°10.3 9.5 346 14.9 102580 71
2003-09-02 07:31:31 51°21.91 3°10.31 9.1 342 14.9 102580 71
2003-09-02 07:31:37 51°21.92 3°10.34 7.9 344 14.9 102580 71
2003-09-02 07:31:41 51°21.93 3°10.36 8.3 343 14.9 102580 71
2003-09-02 07:31:47 51°21.94 3°10.39 7.6 349 14.9 102580 71
2003-09-02 07:31:51 51°21.94 3°10.41 8 350 14.9 102580 71
2003-09-02 07:31:57 51°21.95 3°10.44 7.3 348 14.9 102580 71
2003-09-02 07:32:01 51°21.96 3°10.46 6.7 347 14.8 102580 71
2003-09-02 07:32:07 51°21.97 3°10.48 6.6 352 14.8 102580 71
2003-09-02 07:32:11 51°21.98 3°10.5 7.2 341 14.8 102570 71
2003-09-02 07:32:17 51°21.99 3°10.53 7.9 344 14.8 102570 71
2003-09-02 07:32:21 51°21.99 3°10.55 8.1 338 14.7 102590 71
2003-09-02 07:32:27 51°22 3°10.57 7.2 343 14.7 102590 71
2003-09-02 07:32:31 51°22.01 3°10.59 7.3 338 14.7 102590 71
2003-09-02 07:32:37 51°22.02 3°10.62 6.7 335 14.7 102590 71
2003-09-02 07:32:41 51°22.03 3°10.63 7.8 334 14.7 102580 72
2003-09-02 07:32:47 51°22.04 3°10.66 6.6 347 14.7 102580 72
2003-09-02 07:32:51 51°22.04 3°10.68 6.3 336 14.7 102580 72
2003-09-02 07:32:57 51°22.05 3°10.7 6.1 335 14.7 102580 72
2003-09-02 07:33:01 51°22.06 3°10.72 6.6 333 14.7 102580 73
2003-09-02 07:33:07 51°22.07 3°10.74 5.9 345 14.7 102580 73
2003-09-02 07:33:11 51°22.07 3°10.76 6.7 323 14.7 102570 73
2003-09-02 07:33:17 51°22.08 3°10.79 7.2 333 14.7 102570 73
2003-09-02 07:33:21 51°22.09 3°10.8 6.8 327 14.7 102590 74
2003-09-02 07:33:27 51°22.1 3°10.83 7.7 327 14.7 102590 74
2003-09-02 07:33:31 51°22.11 3°10.84 6.2 333 14.7 102570 74
2003-09-02 07:33:37 51°22.12 3°10.87 6.8 329 14.7 102570 74
2003-09-02 07:33:41 51°22.12 3°10.88 6.1 334 14.7 102580 74
2003-09-02 07:33:47 51°22.13 3°10.91 5.8 334 14.7 102580 74
2003-09-02 07:33:51 51°22.14 3°10.92 6.1 327 14.6 102580 74
2003-09-02 07:33:57 51°22.15 3°10.95 5.7 326 14.6 102580 74
2003-09-02 07:34:01 51°22.16 3°10.97 5.8 326 14.6 102580 74
2003-09-02 07:34:07 51°22.16 3°10.99 6.1 332 14.6 102580 74
2003-09-02 07:34:11 51°22.17 3°11.01 6.1 328 14.6 102580 74
2003-09-02 07:34:17 51°22.18 3°11.04 5 332 14.6 102580 74
2003-09-02 07:34:21 51°22.19 3°11.05 5.6 329 14.5 102580 74
2003-09-02 07:34:27 51°22.2 3°11.08 5.7 335 14.5 102580 74
2003-09-02 07:34:31 51°22.2 3°11.1 5.7 325 14.5 102580 74
2003-09-02 07:34:37 51°22.21 3°11.12 4.9 331 14.5 102580 74
2003-09-02 07:34:41 51°22.22 3°11.14 5.7 321 14.5 102580 74
2003-09-02 07:34:47 51°22.23 3°11.17 5.3 326 14.5 102580 74
2003-09-02 07:34:51 51°22.23 3°11.19 5 324 14.5 102580 74
2003-09-02 07:34:57 51°22.24 3°11.22 5.4 336 14.5 102580 74
2003-09-02 07:35:01 51°22.25 3°11.24 5.9 324 14.5 102580 74
2003-09-02 07:35:07 51°22.26 3°11.26 4.3 332 14.5 102580 74
2003-09-02 07:35:11 51°22.26 3°11.28 5 322 14.4 102590 74
2003-09-02 07:35:17 51°22.27 3°11.31 4.4 327 14.4 102590 74
2003-09-02 07:35:21 51°22.27 3°11.33 4.2 337 14.4 102590 74
2003-09-02 07:35:27 51°22.28 3°11.36 3.3 349 14.4 102590 74
2003-09-02 07:35:31 51°22.29 3°11.38 3.3 3 14.4 102580 74
2003-09-02 07:35:37 51°22.29 3°11.41 3.8 357 14.4 102580 74
2003-09-02 07:35:39 51°22.3 3°11.42 4 5 14.4 102590 74
2003-09-02 07:35:47 51°22.3 3°11.46 4.2 356 14.4 102590 74
2003-09-02 07:35:51 51°22.31 3°11.48 4 358 14.4 102580 75
2003-09-02 07:35:57 51°22.31 3°11.51 4.4 358 14.4 102580 75
2003-09-02 07:36:01 51°22.32 3°11.53 4.4 11 14.4 102590 75
2003-09-02 07:36:07 51°22.33 3°11.56 5.5   14.4 102590 75
2003-09-02 07:36:11 51°22.33 3°11.58 5.4 5 14.3 102590 75
2003-09-02 07:36:17 51°22.34 3°11.61 4.8 17 14.3 102590 75
2003-09-02 07:36:21 51°22.34 3°11.63 5.5 21 14.4 102590 74
2003-09-02 07:36:27 51°22.34 3°11.66 5 12 14.4 102590 74
2003-09-02 07:36:31 51°22.34 3°11.68 5.1 18 14.3 102580 74
2003-09-02 07:36:37 51°22.35 3°11.71 5.3 23 14.3 102580 74
2003-09-02 07:36:41 51°22.35 3°11.74 5.5 21 14.3 102580 75
2003-09-02 07:36:47 51°22.35 3°11.77 6.2 21 14.3 102580 75
2003-09-02 07:36:51 51°22.35 3°11.79 5.5 22 14.4 102570 75
2003-09-02 07:36:57 51°22.35 3°11.82 6.4 22 14.4 102570 75
2003-09-02 07:37:01 51°22.36 3°11.84 6 16 14.4 102570 74
2003-09-02 07:37:07 51°22.36 3°11.87 5.3 14 14.4 102570 74
2003-09-02 07:37:11 51°22.36 3°11.89 5.2 10 14.4 102570 74
2003-09-02 07:37:17 51°22.37 3°11.92 5 13 14.4 102570 74
2003-09-02 07:37:21 51°22.37 3°11.94 5 2 14.4 102580 74
2003-09-02 07:37:27 51°22.38 3°11.97 4.7 12 14.4 102580 74
2003-09-02 07:37:31 51°22.39 3°11.99 5 8 14.4 102580 73
2003-09-02 07:37:37 51°22.4 3°12.02 5.1 13 14.4 102580 73
2003-09-02 07:37:41 51°22.4 3°12.04 5.5 1 14.4 102580 73
2003-09-02 07:37:47 51°22.41 3°12.07 5.8 10 14.4 102580 73
2003-09-02 07:37:51 51°22.42 3°12.09 5.7 12 14.4 102580 73
2003-09-02 07:37:57 51°22.42 3°12.12 5.2 18 14.4 102580 73
2003-09-02 07:38:01 51°22.43 3°12.14 5.4 12 14.4 102580 72
2003-09-02 07:38:07 51°22.43 3°12.17 5.6 5 14.4 102580 72
2003-09-02 07:38:11 51°22.44 3°12.19 5.4 13 14.4 102580 71
2003-09-02 07:38:17 51°22.44 3°12.22 5.6 10 14.4 102580 71
2003-09-02 07:38:21 51°22.45 3°12.24 5.4 22 14.4 102580 71
2003-09-02 07:38:27 51°22.45 3°12.28 5.4 9 14.4 102580 71
2003-09-02 07:38:31 51°22.46 3°12.3 5 16 14.4 102580 70
2003-09-02 07:38:37 51°22.46 3°12.33 5.7 21 14.4 102580 70
2003-09-02 07:38:41 51°22.46 3°12.35 6.3 25 14.4 102590 70
2003-09-02 07:38:47 51°22.47 3°12.38 6.7 19 14.4 102590 70
2003-09-02 07:38:51 51°22.47 3°12.41 6.6 22 14.4 102580 70
2003-09-02 07:38:57 51°22.47 3°12.44 5.5 16 14.4 102580 70
2003-09-02 07:39:01 51°22.48 3°12.46 5.7 26 14.5 102570 71
2003-09-02 07:39:07 51°22.48 3°12.49 6.4 19 14.5 102570 71
2003-09-02 07:39:11 51°22.48 3°12.52 6.2 23 14.5 102570 71
2003-09-02 07:39:17 51°22.48 3°12.55 6.3 19 14.5 102570 71
2003-09-02 07:39:21 51°22.49 3°12.57 6.7 26 14.5 102560 70
2003-09-02 07:39:27 51°22.49 3°12.6 6.1 17 14.5 102560 70
2003-09-02 07:39:31 51°22.49 3°12.63 6.4 26 14.5 102570 70
2003-09-02 07:39:37 51°22.5 3°12.66 5.9 22 14.5 102570 70
2003-09-02 07:39:41 51°22.5 3°12.68 6.6 23 14.6 102560 70
2003-09-02 07:39:47 51°22.5 3°12.71 6.4 18 14.6 102560 70
2003-09-02 07:39:51 51°22.5 3°12.74 6.8 25 14.6 102570 70
2003-09-02 07:39:57 51°22.5 3°12.77 6.6 19 14.6 102570 70
2003-09-02 07:40:01 51°22.5 3°12.79 7 19 14.6 102570 70
2003-09-02 07:40:07 51°22.51 3°12.82 7 21 14.6 102570 70
2003-09-02 07:40:11 51°22.51 3°12.85 6.8 14 14.6 102570 70
2003-09-02 07:40:17 51°22.51 3°12.88 7.4 14 14.6 102570 70
2003-09-02 07:40:21 51°22.51 3°12.9 7.2 16 14.7 102560 69
2003-09-02 07:40:27 51°22.52 3°12.93 6.9 19 14.7 102560 69
2003-09-02 07:40:31 51°22.52 3°12.96 7 17 14.7 102580 69
2003-09-02 07:40:37 51°22.52 3°12.99 6.7 16 14.7 102580 69
2003-09-02 07:40:41 51°22.52 3°13.01 6.8 14 14.7 102570 70
2003-09-02 07:40:47 51°22.53 3°13.04 5.9 19 14.7 102570 70
2003-09-02 07:40:51 51°22.53 3°13.06 5.8 16 14.7 102580 70
2003-09-02 07:40:57 51°22.54 3°13.1 6.8 12 14.7 102580 70
2003-09-02 07:41:01 51°22.54 3°13.12 6.2 16 14.7 102590 69
2003-09-02 07:41:07 51°22.54 3°13.15 6 22 14.7 102590 69
2003-09-02 07:41:11 51°22.55 3°13.17 6.1 19 14.7 102570 69
2003-09-02 07:41:17 51°22.55 3°13.2 7.2 19 14.7 102570 69
2003-09-02 07:41:21 51°22.56 3°13.22 7.1 14 14.8 102580 69
2003-09-02 07:41:27 51°22.56 3°13.26 6.3 27 14.8 102580 69
2003-09-02 07:41:31 51°22.56 3°13.28 6.7 16 14.8 102580 69
2003-09-02 07:41:37 51°22.57 3°13.31 7.1 23 14.8 102580 69
2003-09-02 07:41:41 51°22.57 3°13.33 6.9 26 14.8 102580 69
2003-09-02 07:41:47 51°22.57 3°13.37 7.2 15 14.8 102580 69
2003-09-02 07:41:51 51°22.58 3°13.39 6.6 20 14.8 102580 69
2003-09-02 07:41:57 51°22.58 3°13.42 7.6 19 14.8 102580 69
2003-09-02 07:42:01 51°22.58 3°13.44 7.6 20 14.8 102580 69
2003-09-02 07:42:07 51°22.59 3°13.47 7.6 15 14.8 102580 69
2003-09-02 07:42:11 51°22.59 3°13.49 7.3 20 14.9 102570 69
2003-09-02 07:42:17 51°22.6 3°13.53 7.2 13 14.9 102570 69
2003-09-02 07:42:21 51°22.6 3°13.55 6.6 19 14.9 102580 69
2003-09-02 07:42:27 51°22.6 3°13.58 6.6 20 14.9 102580 69
2003-09-02 07:42:31 51°22.61 3°13.6 6.7 26 14.9 102570 68
2003-09-02 07:42:37 51°22.61 3°13.63 7.1 17 14.9 102570 68
2003-09-02 07:42:41 51°22.62 3°13.65 7.3 15 14.8 102590 68
2003-09-02 07:42:47 51°22.62 3°13.69 7.6 17 14.8 102590 68
2003-09-02 07:42:51 51°22.62 3°13.71 7.6 16 14.9 102570 68
2003-09-02 07:42:57 51°22.63 3°13.74 6.6 14 14.9 102570 68
2003-09-02 07:43:01 51°22.63 3°13.76 6.6 17 14.9 102580 68
2003-09-02 07:43:07 51°22.64 3°13.79 6.5 17 14.9 102580 68
2003-09-02 07:43:11 51°22.64 3°13.81 7.6 21 14.9 102580 68
2003-09-02 07:43:17 51°22.64 3°13.85 7.6 19 14.9 102580 68
2003-09-02 07:43:21 51°22.65 3°13.87 7.4 23 14.9 102580 68
2003-09-02 07:43:27 51°22.65 3°13.9 7.1 17 14.9 102580 68
2003-09-02 07:43:31 51°22.66 3°13.92 7.3 18 14.9 102570 68
2003-09-02 07:43:37 51°22.66 3°13.95 6.5 18 14.9 102570 68
2003-09-02 07:43:41 51°22.66 3°13.97 6.6 24 14.9 102570 67
2003-09-02 07:43:47 51°22.67 3°14 6.8 22 14.9 102570 67
2003-09-02 07:43:51 51°22.67 3°14.03 7.6 21 14.9 102580 67
2003-09-02 07:43:57 51°22.68 3°14.06 7 13 14.9 102580 67
2003-09-02 07:44:01 51°22.68 3°14.08 6.8 12 14.9 102570 67
2003-09-02 07:44:07 51°22.68 3°14.11 7.2 9 14.9 102570 67
2003-09-02 07:44:11 51°22.69 3°14.13 6.7 12 14.9 102570 67
2003-09-02 07:44:17 51°22.69 3°14.16 7.4 11 14.9 102570 67
2003-09-02 07:44:21 51°22.7 3°14.18 7.1 18 15 102580 67
2003-09-02 07:44:27 51°22.7 3°14.21 7.3 20 15 102580 67
2003-09-02 07:44:31 51°22.71 3°14.23 7.2 19 15 102570 67
2003-09-02 07:44:37 51°22.71 3°14.26 6.7 16 15 102570 67
2003-09-02 07:44:41 51°22.71 3°14.28 7.2 22 15 102570 67
2003-09-02 07:44:47 51°22.72 3°14.32 7.2 13 15 102570 67
2003-09-02 07:44:51 51°22.72 3°14.34 7.5 19 15 102570 67
2003-09-02 07:44:57 51°22.73 3°14.37 6.7 23 15 102570 67
2003-09-02 07:45:01 51°22.73 3°14.39 7.1 11 15 102580 67
2003-09-02 07:45:07 51°22.74 3°14.42 6.4 19 15 102580 67
2003-09-02 07:45:11 51°22.74 3°14.44 7.1 16 15 102580 67
2003-09-02 07:45:17 51°22.74 3°14.47 6.1 27 15 102580 67
2003-09-02 07:45:21 51°22.75 3°14.49 6.3 21 15 102570 67
2003-09-02 07:45:27 51°22.75 3°14.51 6 31 15 102570 67
2003-09-02 07:45:31 51°22.76 3°14.53 5.6 19 15 102580 67
2003-09-02 07:45:37 51°22.76 3°14.55 5 30 15 102580 67
2003-09-02 07:45:41 51°22.77 3°14.57 5 24 15 102570 67
2003-09-02 07:45:47 51°22.77 3°14.59 4.8 15 15 102570 67
2003-09-02 07:45:51 51°22.77 3°14.6 4.6 27 15 102580 67
2003-09-02 07:45:57 51°22.78 3°14.61 4.3 26 15 102580 67
2003-09-02 07:46:01 51°22.78 3°14.62 4.4 23 15.1 102580 67
2003-09-02 07:46:07 51°22.79 3°14.64 3.4 23 15.1 102580 67
2003-09-02 07:46:11 51°22.79 3°14.65 3.4 34 15.1 102580 67
2003-09-02 07:46:17 51°22.8 3°14.66 3.3 40 15.1 102580 67
2003-09-02 07:46:21 51°22.8 3°14.67 2.6 16 15.1 102580 66
2003-09-02 07:46:27 51°22.8 3°14.68 2.7 16 15.1 102580 66
2003-09-02 07:46:31 51°22.81 3°14.69 2.5 33 15 102580 66
2003-09-02 07:46:37 51°22.81 3°14.7 2.5 24 15 102580 66
2003-09-02 07:46:41 51°22.82 3°14.7 2.6 33 15 102580 66
2003-09-02 07:46:47 51°22.82 3°14.71 2.6 35 15 102580 66
2003-09-02 07:46:51 51°22.82 3°14.72 2.5 36 15.1 102590 66
2003-09-02 07:46:57 51°22.82 3°14.73 2.6 51 15.1 102590 66
2003-09-02 07:47:01 51°22.82 3°14.73 2.4 31 15.1 102580 66
2003-09-02 07:47:07 51°22.82 3°14.74 2.8 39 15.1 102580 66
2003-09-02 07:47:11 51°22.83 3°14.74 2.4 44 15.1 102580 66
2003-09-02 07:47:17 51°22.83 3°14.75 2.3 38 15.1 102580 66
2003-09-02 07:47:21 51°22.83 3°14.76 2.1 39 15 102580 66
2003-09-02 07:47:27 51°22.83 3°14.76 2.3 48 15 102580 66
2003-09-02 07:47:31 51°22.83 3°14.77 1.7 39 15.1 102590 65
2003-09-02 07:47:37 51°22.83 3°14.77 1.7 44 15.1 102590 65
2003-09-02 07:47:41 51°22.83 3°14.78 1.6 47 15 102580 66
2003-09-02 07:47:47 51°22.83 3°14.78 1.3 54 15 102580 66
2003-09-02 07:47:51 51°22.83 3°14.79 1.5 66 15 102580 65
2003-09-02 07:47:57 51°22.83 3°14.79 1.3 73 15 102580 65
2003-09-02 07:48:01 51°22.83 3°14.8 1.1 73 15.1 102580 65
2003-09-02 07:48:07 51°22.83 3°14.8 0.9 59 15.1 102580 65
2003-09-02 07:48:11 51°22.83 3°14.8 0.9 75 15 102580 65
2003-09-02 07:48:17 51°22.83 3°14.81 0.8 78 15 102580 65
2003-09-02 07:48:21 51°22.83 3°14.81 1.5 82 15.1 102580 66
2003-09-02 07:48:27 51°22.84 3°14.81 1.3 83 15.1 102580 66
2003-09-02 07:48:31 51°22.84 3°14.82 1.8 84 15.1 102580 66
2003-09-02 07:48:37 51°22.84 3°14.82 1.2 97 15.1 102580 66
2003-09-02 07:48:41 51°22.84 3°14.82 1.1 97 15.1 102580 66
2003-09-02 07:48:47 51°22.84 3°14.82 1.2 112 15.1 102580 66
2003-09-02 07:48:51 51°22.84 3°14.82 0.9 113 15.1 102580 66
2003-09-02 07:48:57 51°22.84 3°14.83 0.8 114 15.1 102580 66
2003-09-02 07:49:01 51°22.84 3°14.83 0.8 115 15.1 102590 66
2003-09-02 07:49:07 51°22.84 3°14.83 1 122 15.1 102590 66
2003-09-02 07:49:11 51°22.84 3°14.83 1.1 123 15.1 102590 66
2003-09-02 07:49:17 51°22.85 3°14.83 0.9 128 15.1 102590 66
2003-09-02 07:49:21 51°22.85 3°14.83 0.8 116 15.1 102580 66
2003-09-02 07:49:27 51°22.85 3°14.83 0.8 125 15.1 102580 66
2003-09-02 07:49:31 51°22.85 3°14.83 1.6 114 15.1 102580 66
2003-09-02 07:49:37 51°22.85 3°14.83 1.6 108 15.1 102580 66
2003-09-02 07:49:41 51°22.85 3°14.83 1.4 117 15.2 102590 66
2003-09-02 07:49:47 51°22.85 3°14.83 0.7 114 15.2 102590 66
2003-09-02 07:49:51 51°22.85 3°14.83 1.1 119 15.2 102580 66
2003-09-02 07:49:57 51°22.85 3°14.84 1.1 109 15.2 102580 66
2003-09-02 07:50:01 51°22.85 3°14.84 0.7 112 15.2 102590 66
2003-09-02 07:50:07 51°22.85 3°14.84 0.9 125 15.2 102590 66
2003-09-02 07:50:11 51°22.85 3°14.84 0.6 125 15.2 102590 66
2003-09-02 07:50:17 51°22.86 3°14.84 0.8 115 15.2 102590 66
2003-09-02 07:50:21 51°22.86 3°14.84 1.2 118 15.2 102590 66
2003-09-02 07:50:27 51°22.86 3°14.84 1.3 121 15.2 102590 66
2003-09-02 07:50:31 51°22.86 3°14.84 1.6 122 15.2 102580 66
2003-09-02 07:50:37 51°22.86 3°14.84 1.6 115 15.2 102580 66
2003-09-02 07:50:41 51°22.86 3°14.84 1.7 110 15.2 102580 66
2003-09-02 07:50:47 51°22.86 3°14.84 1.7 111 15.2 102580 66
2003-09-02 07:50:51 51°22.86 3°14.84 1.9 105 15.2 102590 66
2003-09-02 07:50:57 51°22.86 3°14.84 1.8 107 15.2 102590 66
2003-09-02 07:51:01 51°22.86 3°14.84 1.8 103 15.2 102590 66
2003-09-02 07:51:07 51°22.86 3°14.84 2 99 15.2 102590 66
2003-09-02 07:51:11 51°22.86 3°14.84 2.2 102 15.2 102590 66
2003-09-02 07:51:17 51°22.87 3°14.84 1.9 93 15.2 102590 66
2003-09-02 07:51:21 51°22.87 3°14.84 2.3 97 15.2 102590 66
2003-09-02 07:51:27 51°22.87 3°14.84 2.1 99 15.2 102590 66
2003-09-02 07:51:31 51°22.87 3°14.84 1.9 96 15.2 102590 67
2003-09-02 07:51:37 51°22.87 3°14.84 2.3 110 15.2 102590 67
2003-09-02 07:51:41 51°22.87 3°14.84 1.6 109 15.2 102590 67
2003-09-02 07:51:47 51°22.87 3°14.84 1.5 118 15.2 102590 67
2003-09-02 07:51:51 51°22.87 3°14.84 1.5 117 15.2 102590 67
2003-09-02 07:51:57 51°22.87 3°14.84 2 120 15.2 102590 67